Location: Newark
(59.8814°N, 10.8258°E)
Time: 21:09:04
(UTC+00:00)

Envisat - Pass Details

Date: 31 January 2020
Orbit: 764 x 766 km, 98.1° (Epoch: 23 February)

Event Time Altitude Azimuth Distance (km) Brightness Sun altitude
Rises 18:50:06 0° 226° (SW) 3,230 6.7 -25.0°
Reaches altitude 10° 18:53:46 10° 253° (WSW) 2,310 6.3 -25.4°
Maximum altitude 18:56:06 13° 281° (W) 2,104 6.2 -25.7°
Drops below altitude 10° 18:58:26 10° 308° (NW) 2,317 6.3 -26.0°
Sets 19:02:09 0° 336° (NNW) 3,249 6.7 -26.4°
